| time (UTC) | temp C | wind direction | speed KPH | gust KPH | rain 1hr cm | rain 24hr cm | rain mn cm | humidity % | barometer mb |
| 20260506051037 | 12 | 0 | 0.0 | 1.6 | 0.00 | 0.00 | 0.00 | 88 | 1019.2 |
| 20260506050538 | 12 | 0 | 0.0 | 1.6 | 0.00 | 0.00 | 0.00 | 88 | 1019.2 |
| 20260506045037 | 12 | 0 | 0.0 | 3.2 | 0.00 | 0.00 | 0.00 | 87 | 1019.1 |
| 20260506044548 | 12 | 0 | 0.0 | 3.2 | 0.00 | 0.00 | 0.00 | 87 | 1018.9 |
| 20260506044038 | 12 | 0 | 0.0 | 3.2 | 0.00 | 0.00 | 0.00 | 87 | 1018.9 |
| 20260506043537 | 12 | 0 | 0.0 | 3.2 | 0.00 | 0.00 | 0.00 | 87 | 1018.8 |
| 20260506043046 | 12 | 0 | 0.0 | 3.2 | 0.00 | 0.00 | 0.00 | 87 | 1018.7 |
| 20260506042536 | 12 | 0 | 0.0 | 3.2 | 0.00 | 0.00 | 0.00 | 86 | 1018.7 |
| 20260506042037 | 12 | 0 | 0.0 | 3.2 | 0.00 | 0.00 | 0.00 | 87 | 1018.7 |
| 20260506041553 | 12 | 0 | 0.0 | 3.2 | 0.00 | 0.00 | 0.00 | 86 | 1018.7 |
| 20260506041037 | 12 | 0 | 0.0 | 1.6 | 0.00 | 0.00 | 0.00 | 86 | 1018.6 |
| 20260506040537 | 12 | 0 | 0.0 | 1.6 | 0.00 | 0.00 | 0.00 | 86 | 1018.6 |
| 20260506040050 | 12 | 0 | 0.0 | 3.2 | 0.00 | 0.00 | 0.00 | 86 | 1018.5 |
| 20260506035537 | 12 | 0 | 0.0 | 3.2 | 0.00 | 0.00 | 0.00 | 86 | 1018.4 |
| 20260506035037 | 12 | 0 | 0.0 | 3.2 | 0.00 | 0.00 | 0.00 | 86 | 1018.4 |
| 20260506034549 | 12 | 0 | 0.0 | 3.2 | 0.00 | 0.00 | 0.00 | 86 | 1018.3 |
| 20260506034038 | 12 | 0 | 0.0 | 4.8 | 0.00 | 0.00 | 0.00 | 86 | 1018.3 |
| 20260506033538 | 12 | 0 | 0.0 | 4.8 | 0.00 | 0.00 | 0.00 | 85 | 1018.2 |
| 20260506033051 | 12 | 0 | 0.0 | 3.2 | 0.00 | 0.00 | 0.00 | 85 | 1018.1 |
| 20260506032538 | 12 | 345 | 0.0 | 3.2 | 0.00 | 0.00 | 0.00 | 85 | 1018.1 |
| 20260506032038 | 12 | 0 | 0.0 | 3.2 | 0.00 | 0.00 | 0.00 | 85 | 1018.1 |
| 20260506031541 | 12 | 0 | 0.0 | 4.8 | 0.00 | 0.00 | 0.00 | 85 | 1018.0 |
| 20260506031040 | 12 | 0 | 0.0 | 4.8 | 0.00 | 0.00 | 0.00 | 85 | 1017.9 |
| 20260506030537 | 13 | 0 | 0.0 | 4.8 | 0.00 | 0.00 | 0.00 | 85 | 1018.0 |
| 20260506030041 | 13 | 0 | 0.0 | 4.8 | 0.00 | 0.00 | 0.00 | 84 | 1017.9 |
| 20260506025537 | 13 | 0 | 0.0 | 1.6 | 0.00 | 0.00 | 0.00 | 84 | 1017.9 |
| 20260506025039 | 13 | 0 | 0.0 | 3.2 | 0.00 | 0.00 | 0.00 | 84 | 1017.8 |
| 20260506024605 | 13 | 351 | 0.0 | 3.2 | 0.00 | 0.00 | 0.00 | 84 | 1017.8 |
| 20260506024037 | 12 | 0 | 0.0 | 4.8 | 0.00 | 0.00 | 0.00 | 84 | 1017.8 |
| 20260506023538 | 12 | 333 | 0.0 | 6.4 | 0.00 | 0.00 | 0.00 | 84 | 1017.7 |
| 20260506023044 | 12 | 331 | 1.6 | 6.4 | 0.00 | 0.00 | 0.00 | 84 | 1017.7 |
| 20260506022537 | 13 | 352 | 0.0 | 6.4 | 0.00 | 0.00 | 0.00 | 83 | 1017.6 |
| 20260506022038 | 13 | 11 | 1.6 | 6.4 | 0.00 | 0.00 | 0.00 | 84 | 1017.6 |
| 20260506021552 | 13 | 0 | 1.6 | 4.8 | 0.00 | 0.00 | 0.00 | 84 | 1017.6 |
| 20260506021037 | 13 | 0 | 0.0 | 4.8 | 0.00 | 0.00 | 0.00 | 84 | 1017.7 |
| 20260506020537 | 13 | 340 | 0.0 | 3.2 | 0.00 | 0.00 | 0.00 | 84 | 1017.6 |
| 20260506020045 | 13 | 313 | 0.0 | 4.8 | 0.00 | 0.00 | 0.00 | 84 | 1017.6 |
| 20260506015537 | 13 | 313 | 0.0 | 4.8 | 0.00 | 0.00 | 0.00 | 84 | 1017.5 |
| 20260506015038 | 13 | 0 | 0.0 | 3.2 | 0.00 | 0.00 | 0.00 | 84 | 1017.6 |
| 20260506014549 | 13 | 0 | 0.0 | 6.4 | 0.00 | 0.00 | 0.00 | 84 | 1017.5 |
| 20260506014037 | 13 | 331 | 1.6 | 6.4 | 0.00 | 0.00 | 0.00 | 83 | 1017.4 |
| 20260506013537 | 13 | 281 | 0.0 | 4.8 | 0.00 | 0.00 | 0.00 | 83 | 1017.5 |
| 20260506013049 | 13 | 326 | 0.0 | 4.8 | 0.00 | 0.00 | 0.00 | 83 | 1017.5 |
| 20260506012537 | 13 | 0 | 0.0 | 4.8 | 0.00 | 0.00 | 0.00 | 83 | 1017.4 |
| 20260506012038 | 13 | 327 | 1.6 | 4.8 | 0.00 | 0.00 | 0.00 | 83 | 1017.4 |
| 20260506011609 | 13 | 327 | 0.0 | 4.8 | 0.00 | 0.00 | 0.00 | 83 | 1017.3 |
| 20260506011038 | 13 | 0 | 0.0 | 6.4 | 0.00 | 0.00 | 0.00 | 83 | 1017.3 |
| 20260506010538 | 13 | 0 | 0.0 | 11.3 | 0.00 | 0.00 | 0.00 | 82 | 1017.3 |
| 20260506010046 | 13 | 347 | 0.0 | 11.3 | 0.00 | 0.00 | 0.00 | 82 | 1017.4 |
| 20260506005538 | 14 | 311 | 1.6 | 11.3 | 0.00 | 0.00 | 0.00 | 82 | 1017.4 |
| 20260506005040 | 14 | 322 | 0.0 | 8.0 | 0.00 | 0.00 | 0.00 | 82 | 1017.3 |
| 20260506004546 | 13 | 0 | 0.0 | 6.4 | 0.00 | 0.00 | 0.00 | 82 | 1017.4 |
| 20260506004037 | 13 | 318 | 0.0 | 8.0 | 0.00 | 0.00 | 0.00 | 82 | 1017.4 |
| 20260506003538 | 13 | 342 | 1.6 | 9.7 | 0.00 | 0.00 | 0.00 | 82 | 1017.3 |
| 20260506003046 | 13 | 285 | 1.6 | 9.7 | 0.00 | 0.00 | 0.00 | 82 | 1017.3 |
| 20260506002537 | 13 | 317 | 1.6 | 6.4 | 0.00 | 0.00 | 0.00 | 82 | 1017.3 |
| 20260506002037 | 14 | 352 | 1.6 | 4.8 | 0.00 | 0.00 | 0.00 | 81 | 1017.4 |
| 20260506001549 | 14 | 320 | 1.6 | 11.3 | 0.00 | 0.00 | 0.00 | 81 | 1017.5 |
| 20260506001038 | 14 | 0 | 0.0 | 11.3 | 0.00 | 0.00 | 0.00 | 81 | 1017.4 |
| 20260506000538 | 14 | 282 | 1.6 | 9.7 | 0.00 | 0.00 | 0.00 | 81 | 1017.5 |
| 20260506000054 | 14 | 288 | 1.6 | 8.0 | 0.00 | 0.00 | 0.00 | 80 | 1017.5 |
| 20260505235538 | 14 | 317 | 3.2 | 9.7 | 0.00 | 0.00 | 0.00 | 80 | 1017.5 |
| 20260505235037 | 14 | 292 | 1.6 | 11.3 | 0.00 | 0.00 | 0.00 | 80 | 1017.4 |
| 20260505234546 | 15 | 307 | 1.6 | 11.3 | 0.00 | 0.00 | 0.00 | 80 | 1017.4 |
| 20260505234040 | 15 | 268 | 1.6 | 11.3 | 0.00 | 0.00 | 0.00 | 80 | 1017.4 |
| 20260505233537 | 15 | 0 | 3.2 | 11.3 | 0.00 | 0.00 | 0.00 | 80 | 1017.5 |
| 20260505233042 | 15 | 320 | 1.6 | 9.7 | 0.00 | 0.00 | 0.00 | 80 | 1017.5 |
| 20260505232537 | 14 | 329 | 1.6 | 6.4 | 0.00 | 0.00 | 0.00 | 80 | 1017.6 |
| 20260505232039 | 14 | 0 | 1.6 | 11.3 | 0.00 | 0.00 | 0.00 | 79 | 1017.6 |
| 20260505231544 | 15 | 337 | 1.6 | 11.3 | 0.00 | 0.00 | 0.00 | 78 | 1017.6 |
| 20260505231037 | 15 | 321 | 3.2 | 11.3 | 0.00 | 0.00 | 0.00 | 79 | 1017.6 |
| 20260505230536 | 15 | 299 | 1.6 | 12.9 | 0.00 | 0.00 | 0.00 | 78 | 1017.6 |
| 20260505230039 | 15 | 351 | 1.6 | 12.9 | 0.00 | 0.00 | 0.00 | 79 | 1017.7 |
| 20260505225538 | 15 | 9 | 3.2 | 12.9 | 0.00 | 0.00 | 0.00 | 79 | 1017.6 |
| 20260505225038 | 15 | 0 | 1.6 | 6.4 | 0.00 | 0.00 | 0.00 | 80 | 1017.6 |
| 20260505224551 | 15 | 312 | 1.6 | 11.3 | 0.00 | 0.00 | 0.00 | 80 | 1017.5 |
| 20260505224039 | 15 | 342 | 1.6 | 11.3 | 0.00 | 0.00 | 0.00 | 80 | 1017.6 |
| 20260505223545 | 15 | 313 | 1.6 | 6.4 | 0.00 | 0.00 | 0.00 | 80 | 1017.6 |
| 20260505223045 | 15 | 323 | 1.6 | 12.9 | 0.00 | 0.00 | 0.00 | 80 | 1017.8 |
| 20260505222537 | 15 | 5 | 1.6 | 12.9 | 0.00 | 0.00 | 0.00 | 79 | 1017.8 |
| 20260505222037 | 15 | 324 | 1.6 | 12.9 | 0.00 | 0.00 | 0.00 | 79 | 1017.8 |
| 20260505221556 | 15 | 331 | 1.6 | 16.1 | 0.00 | 0.00 | 0.00 | 78 | 1017.8 |
| 20260505221037 | 15 | 313 | 3.2 | 16.1 | 0.00 | 0.00 | 0.00 | 78 | 1017.9 |
| 20260505220537 | 15 | 256 | 3.2 | 17.7 | 0.00 | 0.00 | 0.00 | 78 | 1017.9 |
| 20260505220055 | 15 | 340 | 1.6 | 17.7 | 0.00 | 0.00 | 0.00 | 78 | 1017.8 |
| 20260505215537 | 15 | 300 | 3.2 | 11.3 | 0.00 | 0.00 | 0.00 | 77 | 1017.8 |
| 20260505215037 | 15 | 337 | 3.2 | 11.3 | 0.00 | 0.00 | 0.00 | 76 | 1017.8 |
| 20260505214551 | 15 | 275 | 3.2 | 11.3 | 0.00 | 0.00 | 0.00 | 77 | 1017.7 |
| 20260505214038 | 15 | 312 | 1.6 | 14.5 | 0.00 | 0.00 | 0.00 | 76 | 1017.7 |
| 20260505213539 | 15 | 323 | 3.2 | 14.5 | 0.00 | 0.00 | 0.00 | 76 | 1017.7 |
| 20260505213049 | 15 | 5 | 3.2 | 14.5 | 0.00 | 0.00 | 0.00 | 75 | 1017.6 |
| 20260505212538 | 15 | 317 | 1.6 | 9.7 | 0.00 | 0.00 | 0.00 | 75 | 1017.6 |
| 20260505212038 | 16 | 315 | 1.6 | 9.7 | 0.00 | 0.00 | 0.00 | 76 | 1017.6 |
| 20260505211542 | 16 | 0 | 1.6 | 14.5 | 0.00 | 0.00 | 0.00 | 76 | 1017.5 |
| 20260505211037 | 16 | 352 | 1.6 | 14.5 | 0.00 | 0.00 | 0.00 | 76 | 1017.5 |
| 20260505210537 | 16 | 315 | 1.6 | 12.9 | 0.00 | 0.00 | 0.00 | 76 | 1017.5 |
| 20260505210051 | 16 | 311 | 1.6 | 11.3 | 0.00 | 0.00 | 0.00 | 77 | 1017.5 |
| 20260505205537 | 16 | 24 | 3.2 | 14.5 | 0.00 | 0.00 | 0.00 | 78 | 1017.5 |
| 20260505205039 | 16 | 322 | 3.2 | 19.3 | 0.00 | 0.00 | 0.00 | 78 | 1017.4 |
| 20260505204556 | 15 | 346 | 4.8 | 19.3 | 0.00 | 0.00 | 0.00 | 78 | 1017.3 |
| 20260505204039 | 15 | 318 | 6.4 | 19.3 | 0.00 | 0.00 | 0.00 | 77 | 1017.4 |
| 20260505203537 | 15 | 319 | 6.4 | 20.9 | 0.00 | 0.00 | 0.00 | 76 | 1017.3 |
| 20260505203042 | 16 | 304 | 8.0 | 20.9 | 0.00 | 0.00 | 0.00 | 75 | 1017.3 |
| 20260505202537 | 16 | 300 | 4.8 | 16.1 | 0.00 | 0.00 | 0.00 | 73 | 1017.4 |
| 20260505202036 | 16 | 291 | 4.8 | 16.1 | 0.00 | 0.00 | 0.00 | 73 | 1017.3 |
| 20260505201546 | 16 | 30 | 3.2 | 16.1 | 0.00 | 0.00 | 0.00 | 73 | 1017.3 |
| 20260505201037 | 16 | 327 | 4.8 | 16.1 | 0.00 | 0.00 | 0.00 | 73 | 1017.2 |
| 20260505200538 | 16 | 0 | 1.6 | 12.9 | 0.00 | 0.00 | 0.00 | 74 | 1017.2 |
| 20260505200048 | 16 | 315 | 4.8 | 12.9 | 0.00 | 0.00 | 0.00 | 75 | 1017.2 |
| 20260505195537 | 15 | 0 | 1.6 | 11.3 | 0.00 | 0.00 | 0.00 | 76 | 1017.2 |
| 20260505195037 | 15 | 306 | 1.6 | 12.9 | 0.00 | 0.00 | 0.00 | 77 | 1017.2 |
| 20260505194557 | 15 | 0 | 3.2 | 12.9 | 0.00 | 0.00 | 0.00 | 77 | 1017.2 |
| 20260505194036 | 15 | 316 | 1.6 | 11.3 | 0.00 | 0.00 | 0.00 | 78 | 1017.3 |
| 20260505193535 | 15 | 299 | 3.2 | 11.3 | 0.00 | 0.00 | 0.00 | 79 | 1017.3 |
| 20260505193046 | 15 | 0 | 3.2 | 17.7 | 0.00 | 0.00 | 0.00 | 79 | 1017.2 |
| 20260505192537 | 15 | 288 | 3.2 | 17.7 | 0.00 | 0.00 | 0.00 | 80 | 1017.4 |
| 20260505192035 | 15 | 300 | 1.6 | 11.3 | 0.00 | 0.00 | 0.00 | 81 | 1017.3 |
| 20260505191547 | 14 | 286 | 3.2 | 11.3 | 0.00 | 0.00 | 0.00 | 82 | 1017.4 |
| 20260505191037 | 14 | 338 | 1.6 | 6.4 | 0.00 | 0.00 | 0.00 | 83 | 1017.4 |
| 20260505190538 | 14 | 321 | 0.0 | 6.4 | 0.00 | 0.00 | 0.00 | 83 | 1017.4 |
| 20260505190038 | 14 | 338 | 0.0 | 6.4 | 0.00 | 0.00 | 0.00 | 84 | 1017.4 |
| 20260505185538 | 14 | 0 | 1.6 | 9.7 | 0.00 | 0.00 | 0.00 | 86 | 1017.5 |
| 20260505185041 | 14 | 0 | 1.6 | 9.7 | 0.00 | 0.00 | 0.00 | 86 | 1017.4 |
| 20260505184543 | 14 | 0 | 1.6 | 6.4 | 0.00 | 0.00 | 0.00 | 86 | 1017.4 |
| 20260505184041 | 13 | 345 | 0.0 | 6.4 | 0.00 | 0.00 | 0.00 | 86 | 1017.4 |
| 20260505183538 | 13 | 0 | 0.0 | 6.4 | 0.00 | 0.00 | 0.00 | 86 | 1017.5 |
| 20260505183051 | 13 | 0 | 1.6 | 6.4 | 0.00 | 0.00 | 0.00 | 86 | 1017.5 |
| 20260505182537 | 13 | 267 | 0.0 | 6.4 | 0.00 | 0.00 | 0.00 | 86 | 1017.5 |
| 20260505182037 | 13 | 0 | 0.0 | 6.4 | 0.00 | 0.00 | 0.00 | 86 | 1017.5 |
| 20260505181545 | 13 | 346 | 0.0 | 6.4 | 0.00 | 0.00 | 0.00 | 86 | 1017.5 |
| 20260505181037 | 13 | 277 | 1.6 | 6.4 | 0.00 | 0.00 | 0.00 | 86 | 1017.5 |
| 20260505180536 | 13 | 318 | 0.0 | 4.8 | 0.00 | 0.00 | 0.00 | 87 | 1017.4 |
| 20260505180042 | 13 | 326 | 0.0 | 6.4 | 0.00 | 0.00 | 0.00 | 87 | 1017.4 |
| 20260505175535 | 13 | 0 | 0.0 | 6.4 | 0.00 | 0.00 | 0.00 | 88 | 1017.4 |
| 20260505175038 | 13 | 0 | 1.6 | 4.8 | 0.00 | 0.00 | 0.00 | 88 | 1017.3 |
| 20260505174546 | 13 | 284 | 0.0 | 8.0 | 0.00 | 0.00 | 0.00 | 89 | 1017.4 |
| 20260505174038 | 13 | 0 | 0.0 | 9.7 | 0.00 | 0.00 | 0.00 | 89 | 1017.3 |
| 20260505173536 | 13 | 305 | 3.2 | 9.7 | 0.00 | 0.00 | 0.00 | 89 | 1017.3 |
| 20260505173039 | 13 | 294 | 1.6 | 6.4 | 0.00 | 0.00 | 0.00 | 89 | 1017.2 |
| 20260505172534 | 12 | 302 | 1.6 | 6.4 | 0.00 | 0.00 | 0.00 | 89 | 1017.2 |
| 20260505172037 | 12 | 285 | 0.0 | 4.8 | 0.00 | 0.00 | 0.00 | 90 | 1017.2 |
| 20260505171547 | 12 | 0 | 0.0 | 4.8 | 0.00 | 0.00 | 0.00 | 90 | 1017.2 |
| 20260505171039 | 12 | 288 | 0.0 | 4.8 | 0.00 | 0.00 | 0.00 | 90 | 1017.1 |
| 20260505170535 | 12 | 337 | 0.0 | 4.8 | 0.00 | 0.00 | 0.00 | 91 | 1017.1 |
| 20260505170046 | 12 | 271 | 0.0 | 4.8 | 0.00 | 0.00 | 0.00 | 91 | 1017.1 |
| 20260505165536 | 12 | 0 | 0.0 | 8.0 | 0.00 | 0.00 | 0.00 | 91 | 1017.1 |
| 20260505165037 | 12 | 304 | 0.0 | 8.0 | 0.00 | 0.00 | 0.00 | 91 | 1017.1 |
| 20260505164555 | 12 | 314 | 0.0 | 3.2 | 0.00 | 0.00 | 0.00 | 91 | 1017.1 |
| 20260505164037 | 12 | 0 | 0.0 | 3.2 | 0.00 | 0.00 | 0.00 | 92 | 1017.1 |
| 20260505163534 | 12 | 0 | 0.0 | 3.2 | 0.00 | 0.00 | 0.00 | 92 | 1017.1 |
| 20260505163050 | 12 | 0 | 0.0 | 3.2 | 0.00 | 0.00 | 0.00 | 92 | 1017.0 |
| 20260505162535 | 12 | 0 | 0.0 | 6.4 | 0.00 | 0.00 | 0.00 | 92 | 1017.0 |
| 20260505162035 | 12 | 0 | 0.0 | 6.4 | 0.00 | 0.00 | 0.00 | 93 | 1017.0 |
| 20260505161551 | 12 | 284 | 0.0 | 3.2 | 0.00 | 0.00 | 0.00 | 93 | 1017.1 |
| 20260505161036 | 12 | 292 | 0.0 | 6.4 | 0.00 | 0.00 | 0.00 | 93 | 1017.1 |
| 20260505160535 | 12 | 0 | 0.0 | 6.4 | 0.00 | 0.00 | 0.00 | 93 | 1017.0 |
| 20260505153050 | 11 | 0 | 0.0 | 4.8 | 0.00 | 0.00 | 0.00 | 93 | 1016.8 |
| 20260505152537 | 11 | 238 | 1.6 | 4.8 | 0.00 | 0.00 | 0.00 | 93 | 1017.0 |
| 20260505152035 | 12 | 209 | 0.0 | 3.2 | 0.00 | 0.00 | 0.00 | 93 | 1016.9 |
| 20260505151553 | 12 | 0 | 0.0 | 3.2 | 0.00 | 0.00 | 0.00 | 93 | 1016.8 |
| 20260505151039 | 11 | 0 | 0.0 | 3.2 | 0.00 | 0.00 | 0.00 | 93 | 1016.8 |
| 20260505150535 | 11 | 0 | 0.0 | 3.2 | 0.00 | 0.00 | 0.00 | 94 | 1016.8 |
| 20260505140540 | 11 | 0 | 0.0 | 0.0 | 0.00 | 0.00 | 0.00 | 93 | 1016.4 |
| 20260505125038 | 11 | 0 | 0.0 | 0.0 | 0.00 | 0.00 | 0.00 | 93 | 1015.9 |
| 20260505124555 | 11 | 0 | 0.0 | 0.0 | 0.00 | 0.00 | 0.00 | 93 | 1015.9 |
| 20260505124037 | 11 | 0 | 0.0 | 0.0 | 0.00 | 0.00 | 0.00 | 93 | 1016.0 |
| 20260505123535 | 11 | 0 | 0.0 | 0.0 | 0.00 | 0.00 | 0.00 | 93 | 1015.9 |
| 20260505123055 | 11 | 0 | 0.0 | 0.0 | 0.00 | 0.00 | 0.00 | 93 | 1015.9 |
| 20260505122536 | 11 | 0 | 0.0 | 0.0 | 0.00 | 0.00 | 0.00 | 93 | 1015.9 |
| 20260505122035 | 11 | 0 | 0.0 | 0.0 | 0.00 | 0.00 | 0.00 | 93 | 1015.8 |
| 20260505121542 | 11 | 0 | 0.0 | 0.0 | 0.00 | 0.00 | 0.00 | 93 | 1015.8 |
| 20260505121039 | 11 | 0 | 0.0 | 0.0 | 0.00 | 0.00 | 0.00 | 93 | 1015.9 |
| 20260505120537 | 11 | 0 | 0.0 | 0.0 | 0.00 | 0.00 | 0.00 | 93 | 1015.8 |
| 20260505120100 | 11 | 0 | 0.0 | 0.0 | 0.00 | 0.00 | 0.00 | 93 | 1015.8 |
| 20260505115538 | 11 | 0 | 0.0 | 0.0 | 0.00 | 0.03 | 0.00 | 93 | 1015.8 |
| 20260505115041 | 11 | 0 | 0.0 | 0.0 | 0.00 | 0.03 | 0.00 | 93 | 1015.8 |
| 20260505114548 | 11 | 0 | 0.0 | 0.0 | 0.00 | 0.03 | 0.00 | 93 | 1015.8 |
| 20260505114037 | 11 | 0 | 0.0 | 0.0 | 0.00 | 0.03 | 0.00 | 93 | 1015.8 |
| 20260505113536 | 11 | 0 | 0.0 | 0.0 | 0.00 | 0.03 | 0.00 | 93 | 1015.8 |
| 20260505113103 | 11 | 0 | 0.0 | 0.0 | 0.00 | 0.03 | 0.00 | 93 | 1015.9 |
| 20260505112536 | 11 | 0 | 0.0 | 0.0 | 0.00 | 0.03 | 0.00 | 93 | 1015.9 |
| 20260505112037 | 11 | 0 | 0.0 | 0.0 | 0.00 | 0.03 | 0.00 | 93 | 1015.9 |
| 20260505111543 | 11 | 0 | 0.0 | 0.0 | 0.00 | 0.03 | 0.00 | 93 | 1015.9 |
| 20260505111041 | 11 | 0 | 0.0 | 0.0 | 0.00 | 0.03 | 0.00 | 93 | 1015.9 |
| 20260505110536 | 11 | 0 | 0.0 | 0.0 | 0.00 | 0.03 | 0.00 | 93 | 1015.9 |
| 20260505102038 | 11 | 0 | 0.0 | 0.0 | 0.00 | 0.08 | 0.00 | 93 | 1015.8 |
| 20260505101547 | 11 | 0 | 0.0 | 0.0 | 0.00 | 0.08 | 0.00 | 93 | 1015.8 |
| 20260505101041 | 11 | 0 | 0.0 | 0.0 | 0.00 | 0.08 | 0.00 | 93 | 1015.8 |
| 20260505100541 | 11 | 0 | 0.0 | 0.0 | 0.00 | 0.08 | 0.00 | 93 | 1015.8 |
| 20260505100048 | 11 | 0 | 0.0 | 0.0 | 0.00 | 0.08 | 0.00 | 93 | 1015.8 |
| 20260505095537 | 11 | 0 | 0.0 | 0.0 | 0.00 | 0.10 | 0.00 | 93 | 1015.8 |
| 20260505095036 | 11 | 0 | 0.0 | 0.0 | 0.00 | 0.10 | 0.00 | 93 | 1015.9 |
| 20260505094541 | 11 | 0 | 0.0 | 0.0 | 0.00 | 0.10 | 0.00 | 93 | 1015.8 |
| 20260505094035 | 11 | 0 | 0.0 | 0.0 | 0.00 | 0.10 | 0.00 | 93 | 1015.9 |
| 20260505093537 | 11 | 0 | 0.0 | 0.0 | 0.00 | 0.10 | 0.00 | 93 | 1015.9 |
| 20260505093045 | 11 | 0 | 0.0 | 0.0 | 0.00 | 0.10 | 0.00 | 92 | 1015.9 |
| 20260505092535 | 11 | 0 | 0.0 | 0.0 | 0.00 | 0.10 | 0.00 | 92 | 1016.0 |
| 20260505092035 | 11 | 0 | 0.0 | 0.0 | 0.00 | 0.10 | 0.00 | 92 | 1016.0 |
| 20260505091549 | 11 | 0 | 0.0 | 0.0 | 0.00 | 0.10 | 0.00 | 93 | 1016.1 |
| 20260505091034 | 11 | 0 | 0.0 | 0.0 | 0.00 | 0.10 | 0.00 | 93 | 1016.1 |
| 20260505090534 | 11 | 0 | 0.0 | 0.0 | 0.00 | 0.10 | 0.00 | 93 | 1016.1 |
| 20260505090048 | 11 | 0 | 0.0 | 0.0 | 0.00 | 0.10 | 0.00 | 93 | 1016.2 |
| 20260505085535 | 11 | 0 | 0.0 | 0.0 | 0.00 | 0.10 | 0.00 | 93 | 1016.3 |
| 20260505085039 | 11 | 0 | 0.0 | 0.0 | 0.00 | 0.10 | 0.00 | 92 | 1016.3 |
| 20260505084552 | 11 | 0 | 0.0 | 0.0 | 0.00 | 0.10 | 0.00 | 92 | 1016.3 |
| 20260505084037 | 11 | 0 | 0.0 | 0.0 | 0.00 | 0.10 | 0.00 | 92 | 1016.3 |
| 20260505083535 | 11 | 0 | 0.0 | 0.0 | 0.00 | 0.10 | 0.00 | 92 | 1016.3 |
| 20260505083051 | 11 | 0 | 0.0 | 0.0 | 0.00 | 0.10 | 0.00 | 92 | 1016.3 |
| 20260505082535 | 11 | 0 | 0.0 | 0.0 | 0.00 | 0.10 | 0.00 | 92 | 1016.4 |
| 20260505082036 | 11 | 0 | 0.0 | 0.0 | 0.00 | 0.10 | 0.00 | 92 | 1016.5 |
| 20260505081552 | 11 | 0 | 0.0 | 0.0 | 0.00 | 0.10 | 0.00 | 92 | 1016.5 |
| 20260505081036 | 11 | 0 | 0.0 | 0.0 | 0.00 | 0.10 | 0.00 | 92 | 1016.5 |
| 20260505080539 | 11 | 0 | 0.0 | 0.0 | 0.00 | 0.10 | 0.00 | 92 | 1016.5 |
| 20260505080048 | 11 | 0 | 0.0 | 0.0 | 0.00 | 0.10 | 0.00 | 92 | 1016.5 |
| 20260505075538 | 11 | 0 | 0.0 | 0.0 | 0.00 | 0.10 | 0.00 | 92 | 1016.5 |
| 20260505075038 | 11 | 0 | 0.0 | 0.0 | 0.00 | 0.10 | 0.00 | 92 | 1016.5 |
| 20260505074548 | 11 | 0 | 0.0 | 0.0 | 0.00 | 0.10 | 0.00 | 92 | 1016.6 |
| 20260505074038 | 11 | 0 | 0.0 | 0.0 | 0.00 | 0.10 | 0.00 | 92 | 1016.5 |
| 20260505073538 | 11 | 0 | 0.0 | 0.0 | 0.00 | 0.10 | 0.00 | 92 | 1016.6 |
| 20260505073046 | 11 | 0 | 0.0 | 0.0 | 0.00 | 0.10 | 0.00 | 92 | 1016.6 |
| 20260505072539 | 11 | 0 | 0.0 | 3.2 | 0.00 | 0.10 | 0.00 | 92 | 1016.6 |
| 20260505072038 | 11 | 0 | 0.0 | 3.2 | 0.00 | 0.10 | 0.00 | 92 | 1016.6 |
| 20260505071548 | 11 | 0 | 0.0 | 0.0 | 0.00 | 0.10 | 0.00 | 92 | 1016.7 |
| 20260505071038 | 11 | 0 | 0.0 | 0.0 | 0.00 | 0.10 | 0.00 | 92 | 1016.7 |
| 20260505070535 | 11 | 0 | 0.0 | 0.0 | 0.00 | 0.10 | 0.00 | 92 | 1016.7 |
| 20260505070050 | 11 | 0 | 0.0 | 0.0 | 0.00 | 0.10 | 0.00 | 92 | 1016.7 |
| 20260505065538 | 11 | 0 | 0.0 | 0.0 | 0.00 | 0.10 | 0.10 | 92 | 1016.7 |
| 20260505065035 | 11 | 0 | 0.0 | 0.0 | 0.00 | 0.10 | 0.10 | 92 | 1016.7 |
| 20260505064553 | 11 | 0 | 0.0 | 0.0 | 0.00 | 0.10 | 0.10 | 92 | 1016.6 |
| 20260505064037 | 11 | 0 | 0.0 | 0.0 | 0.00 | 0.10 | 0.10 | 92 | 1016.6 |
| 20260505063541 | 11 | 0 | 0.0 | 0.0 | 0.00 | 0.10 | 0.10 | 92 | 1016.6 |
| 20260505063055 | 11 | 0 | 0.0 | 0.0 | 0.00 | 0.10 | 0.10 | 92 | 1016.6 |
| 20260505062535 | 11 | 0 | 0.0 | 0.0 | 0.00 | 0.10 | 0.10 | 91 | 1016.6 |
| 20260505062039 | 11 | 0 | 0.0 | 0.0 | 0.00 | 0.10 | 0.10 | 91 | 1016.7 |
| 20260505061545 | 11 | 0 | 0.0 | 0.0 | 0.00 | 0.10 | 0.10 | 91 | 1016.7 |
| 20260505061036 | 11 | 0 | 0.0 | 0.0 | 0.00 | 0.10 | 0.10 | 91 | 1016.8 |
| 20260505060536 | 11 | 0 | 0.0 | 0.0 | 0.00 | 0.10 | 0.10 | 91 | 1016.9 |
| 20260505060049 | 11 | 0 | 0.0 | 0.0 | 0.00 | 0.10 | 0.10 | 91 | 1016.9 |